Location: Gugi
(45.4667°N, 11.1000°E)
Time: 13:21:51
(UTC+00:00)

Cosmos 2263 Rocket - Pass Details

Date: 01 March 2020
Orbit: 822 x 850 km, 71.0° (Epoch: 31 March)

Event Time Altitude Azimuth Distance (km) Brightness Sun altitude
Rises 21:31:06 0° 328° (NNW) 3,420 6.1 -44.1°
Reaches altitude 10° 21:33:39 10° 322° (NW) 2,483 5.2 -44.4°
Enters shadow 21:34:36 15° 318° (NW) 2,149 4.8 -44.5°
